Location: Asheville, NC
(35.6000°N, 82.5500°W)
Time: 14:59:12
(UTC-05:00)

RS-15 - Pass Details

Date: 07 January 2018
Orbit: 1886 x 2158 km, 64.8° (Epoch: 17 January)

Event Time Altitude Azimuth Distance (km) Brightness Sun altitude
Rises 23:02:10 0° 309° (NW) 5,472 10.7 -65.5°
Reaches altitude 10° 23:09:41 10° 277° (W) 4,391 10.1 -66.8°
Maximum altitude 23:11:58 11° 265° (W) 4,301 10.0 -67.2°
Enters shadow 23:12:36 11° 262° (W) 4,300 10.0 -67.3°
